Вернуться в каталог

LEMUR-2-LAILA

АктивенПогодаSSO
NORAD 66776·PAYLOAD·🇺🇸 United States

Запущен Nov 28, 2025 с Vandenberg Space Force Base

Loading…

Ближайшие Пролёты (ближайшие 24 часа)

TLE

СвежийSource: Space-Track

Эпоха: Sep 14, 2026, 15:37 UTC

1 66776U 25276DQ  26257.65121652  .00004302  00000-0  19086-3 0  9990
2 66776  97.4101 330.2340 0001189 146.5284 213.6028 15.22109799 44050

Отслеживайте LEMUR-2-LAILA в реальном времени с AllMySat

Download on the App Store